Weather History for Orlando International, FL

Change the Weather History Date:

Monday, October 8, 2012

  Actual Average Record
Temperature  
Mean Temperature 80 °F 78 °F  
Max Temperature 87 °F 86 °F 98 °F (1919)
Min Temperature 73 °F 69 °F 50 °F (1920)
Degree Days  
Heating Degree Days 0 0  
Month to date heating degree days 0 0  
Since 1 July heating degree days 0 0  
Cooling Degree Days 15 12  
Month to date cooling degree days 128 106  
Year to date cooling degree days 3218 2982  
Growing Degree Days 30 (Base 50)    
Moisture  
Dew Point 73 °F    
Average Humidity 80    
Maximum Humidity 100    
Minimum Humidity 59    
Precipitation  
Precipitation 0.34 in 0.13 in 6.16 in (2011)
Month to date precipitation 1.87 1.14  
Year to date precipitation 39.23 43.81  
Sea Level Pressure  
Sea Level Pressure 29.99 in    
Wind  
Wind Speed 4 mph (ENE)    
Max Wind Speed 10 mph    
Max Gust Speed -    
Visibility 10 miles    
Events Rain , Thunderstorm    
T = Trace of Precipitation, MM = Missing Value Source: NWS Daily Summary

Daily Weather History Graph

Daily Weather History Graph

Search for Another Location

Airport:

Trip Planner

Search our weather history database for the weather conditions in past years. The results will help you decide how hot, cold, wet, or windy it might be!

Date:

Astronomy

Oct. 08, 2012 Rise Set
Actual Time 7:22 AM EDT 7:02 PM EDT
Civil Twilight 6:58 AM EDT 7:26 PM EDT
Nautical Twilight 6:31 AM EDT 7:53 PM EDT
Astronomical Twilight 6:03 AM EDT 8:20 PM EDT
Moon 12:32 AM EDT (10/8) 2:21 PM EDT (10/8)
Length of Visible Light 12h 27m
Length of Day
11h 40m
Waning Gibbous, 46% of the Moon is Illuminated
Oct 8
Waning Gibbous
Oct 15
New
Oct 21
First Quarter
Oct 29
Full
Nov 6
Last Quarter

Hourly Weather History & Observations

Time (EDT) Temp. Heat Index Dew Point Humidity Pressure Visibility Wind Dir Wind Speed Gust Speed Precip Events Conditions
12:53 AM 73.9 °F - 73.0 °F 97% 29.99 in 10.0 mi Calm Calm - N/A   Scattered Clouds
1:53 AM 75.0 °F - 73.0 °F 94% 29.97 in 10.0 mi Calm Calm - N/A   Mostly Cloudy
2:53 AM 75.0 °F - 73.0 °F 94% 29.96 in 10.0 mi Calm Calm - N/A   Mostly Cloudy
3:53 AM 73.9 °F - 73.0 °F 97% 29.96 in 10.0 mi Calm Calm - N/A   Mostly Cloudy
4:53 AM 75.0 °F - 73.9 °F 96% 29.96 in 10.0 mi North 4.6 mph - N/A   Mostly Cloudy
5:53 AM 75.0 °F - 73.9 °F 96% 29.99 in 10.0 mi NNW 3.5 mph - N/A   Scattered Clouds
6:53 AM 75.0 °F - 73.9 °F 96% 29.99 in 10.0 mi NNE 3.5 mph - N/A   Mostly Cloudy
7:53 AM 75.9 °F - 73.9 °F 94% 30.02 in 10.0 mi NNE 3.5 mph - N/A   Overcast
8:53 AM 78.1 °F - 75.0 °F 90% 30.02 in 10.0 mi North 3.5 mph - N/A   Overcast
9:53 AM 79.0 °F - 75.0 °F 88% 30.04 in 10.0 mi East 4.6 mph - N/A   Mostly Cloudy
10:53 AM 80.1 °F 85.4 °F 75.9 °F 87% 30.05 in 10.0 mi East 3.5 mph - N/A   Overcast
11:53 AM 84.0 °F 92.6 °F 75.9 °F 76% 30.04 in 10.0 mi ESE 8.1 mph - N/A   Overcast
12:53 PM 82.9 °F 89.4 °F 73.9 °F 74% 30.01 in 10.0 mi SE 8.1 mph - N/A   Overcast
1:53 PM 84.0 °F 89.6 °F 72.0 °F 67% 29.98 in 10.0 mi SE 10.4 mph - N/A   Mostly Cloudy
2:53 PM 87.1 °F 93.6 °F 72.0 °F 61% 29.95 in 10.0 mi SSE 6.9 mph - N/A   Mostly Cloudy
3:53 PM 86.0 °F 91.5 °F 71.1 °F 61% 29.94 in 10.0 mi SSE 4.6 mph - N/A   Mostly Cloudy
4:53 PM 84.0 °F 89.6 °F 72.0 °F 67% 29.94 in 10.0 mi South 3.5 mph - 0.00 in Rain Light Rain
5:26 PM 80.6 °F 85.4 °F 73.4 °F 79% 29.96 in 10.0 mi NNW 11.5 mph - 0.00 in Rain , Thunderstorm Light Thunderstorms and Rain
5:53 PM 78.1 °F - 75.0 °F 90% 29.97 in 9.0 mi NNW 4.6 mph - 0.05 in Rain , Thunderstorm Light Thunderstorms and Rain
6:16 PM 73.4 °F - 71.6 °F 94% 29.98 in 3.0 mi West 5.8 mph - 0.26 in Rain , Thunderstorm Heavy Thunderstorms and Rain
6:33 PM 75.2 °F - 71.6 °F 89% 29.97 in 10.0 mi Calm Calm - 0.29 in Thunderstorm Thunderstorm
6:53 PM 73.9 °F - 73.0 °F 97% 29.97 in 10.0 mi Calm Calm - 0.29 in Thunderstorm Thunderstorm
7:14 PM 75.2 °F - 73.4 °F 94% 29.98 in 10.0 mi West 5.8 mph - N/A   Overcast
7:53 PM 75.0 °F - 73.0 °F 94% 29.97 in 10.0 mi Calm Calm - 0.00 in Rain Light Rain
8:53 PM 75.9 °F - 73.9 °F 94% 30.00 in 10.0 mi Calm Calm - 0.00 in   Mostly Cloudy
9:53 PM 75.0 °F - 73.9 °F 96% 30.02 in 10.0 mi Calm Calm - N/A   Scattered Clouds
10:53 PM 73.9 °F - 73.0 °F 97% 30.04 in 10.0 mi SW 3.5 mph - N/A   Scattered Clouds
11:53 PM 73.9 °F - 73.0 °F 97% 30.03 in 10.0 mi Calm Calm - N/A   Scattered Clouds